Location: ActonStarParty
(42.4766°N, 71.4538°W)
Time: 09:47:32
(UTC-04:00)

Thor Agena Rocket - Pass Details

Date: 19 April 2018
Orbit: 760 x 807 km, 99.1° (Epoch: 17 September)

Event Time Altitude Azimuth Distance (km) Brightness Sun altitude
Rises 19:57:07 0° 19° (NNE) 3,294 6.8 -5.2°
Reaches altitude 10° 19:59:31 10° 25° (NNE) 2,368 6.0 -5.6°
Maximum altitude 20:04:36 51° 101° (E) 1,005 3.8 -6.5°
Drops below altitude 10° 20:09:42 10° 176° (S) 2,375 5.8 -7.3°
Sets 20:12:06 0° 182° (S) 3,304 6.6 -7.7°
